Year,Month,Day,Hour,Minute,Value (Times are PST for temperature in C)
2018,07,19,00,00,13.90
2018,07,19,00,01,13.90
2018,07,19,00,02,13.90
2018,07,19,00,03,13.90
2018,07,19,00,04,13.90
2018,07,19,00,05,13.90
2018,07,19,00,06,13.80
2018,07,19,00,07,13.80
2018,07,19,00,08,13.80
2018,07,19,00,09,13.80
2018,07,19,00,10,13.80
2018,07,19,00,11,13.80
2018,07,19,00,12,13.80
2018,07,19,00,13,13.80
2018,07,19,00,14,13.70
2018,07,19,00,15,13.70
2018,07,19,00,16,13.70
2018,07,19,00,17,13.70
2018,07,19,00,18,13.70
2018,07,19,00,19,13.70
2018,07,19,00,20,13.70
2018,07,19,00,21,13.70
2018,07,19,00,22,13.70
2018,07,19,00,23,13.60
2018,07,19,00,24,13.60
2018,07,19,00,25,13.60
2018,07,19,00,26,13.60
2018,07,19,00,27,13.60
2018,07,19,00,28,13.50
2018,07,19,00,29,13.50
2018,07,19,00,30,13.50
2018,07,19,00,31,13.40
2018,07,19,00,32,13.40
2018,07,19,00,33,13.40
2018,07,19,00,34,13.40
2018,07,19,00,35,13.40
2018,07,19,00,36,13.30
2018,07,19,00,37,13.30
2018,07,19,00,38,13.30
2018,07,19,00,39,13.30
2018,07,19,00,40,13.30
2018,07,19,00,41,13.20
2018,07,19,00,42,13.20
2018,07,19,00,43,13.20
2018,07,19,00,44,13.20
2018,07,19,00,45,13.20
2018,07,19,00,46,13.20
2018,07,19,00,47,13.20
2018,07,19,00,48,13.10
2018,07,19,00,49,13.10
2018,07,19,00,50,13.10
2018,07,19,00,51,13.10
2018,07,19,00,52,13.10
2018,07,19,00,53,13.10
2018,07,19,00,54,13.00
2018,07,19,00,55,13.00
2018,07,19,00,56,13.00
2018,07,19,00,57,13.00
2018,07,19,00,58,12.90
2018,07,19,00,59,12.90
2018,07,19,01,00,12.90
2018,07,19,01,01,12.90
2018,07,19,01,02,12.90
2018,07,19,01,03,12.90
2018,07,19,01,04,12.90
2018,07,19,01,05,12.90
2018,07,19,01,06,12.80
2018,07,19,01,07,12.80
2018,07,19,01,08,12.80
2018,07,19,01,09,12.80
2018,07,19,01,10,12.80
2018,07,19,01,11,12.70
2018,07,19,01,12,12.70
2018,07,19,01,13,12.70
2018,07,19,01,14,12.70
2018,07,19,01,15,12.60
2018,07,19,01,16,12.60
2018,07,19,01,17,12.60
2018,07,19,01,18,12.60
2018,07,19,01,19,12.60
2018,07,19,01,20,12.60
2018,07,19,01,21,12.50
2018,07,19,01,22,12.50
2018,07,19,01,23,12.50
2018,07,19,01,24,12.50
2018,07,19,01,25,12.50
2018,07,19,01,26,12.50
2018,07,19,01,27,12.50
2018,07,19,01,28,12.40
2018,07,19,01,29,12.40
2018,07,19,01,30,12.40
2018,07,19,01,31,12.40
2018,07,19,01,32,12.40
2018,07,19,01,33,12.40
2018,07,19,01,34,12.40
2018,07,19,01,35,12.50
2018,07,19,01,36,12.50
2018,07,19,01,37,12.50
2018,07,19,01,38,12.50
2018,07,19,01,39,12.50
2018,07,19,01,40,12.50
2018,07,19,01,41,12.50
2018,07,19,01,42,12.40
2018,07,19,01,43,12.40
2018,07,19,01,44,12.40
2018,07,19,01,45,12.50
2018,07,19,01,46,12.50
2018,07,19,01,47,12.40
2018,07,19,01,48,12.40
2018,07,19,01,49,12.40
2018,07,19,01,50,12.40
2018,07,19,01,51,12.40
2018,07,19,01,52,12.40
2018,07,19,01,53,12.40
2018,07,19,01,54,12.50
2018,07,19,01,55,12.50
2018,07,19,01,56,12.40
2018,07,19,01,57,12.50
2018,07,19,01,58,12.50
2018,07,19,01,59,12.50
2018,07,19,02,00,12.50
2018,07,19,02,01,12.50
2018,07,19,02,02,12.50
2018,07,19,02,03,12.50
2018,07,19,02,04,12.50
2018,07,19,02,05,12.50
2018,07,19,02,06,12.50
2018,07,19,02,07,12.50
2018,07,19,02,08,12.50
2018,07,19,02,09,12.50
2018,07,19,02,10,12.40
2018,07,19,02,11,12.40
2018,07,19,02,12,12.40
2018,07,19,02,13,12.50
2018,07,19,02,14,12.50
2018,07,19,02,15,12.50
2018,07,19,02,16,12.40
2018,07,19,02,17,12.40
2018,07,19,02,18,12.40
2018,07,19,02,19,12.40
2018,07,19,02,20,12.40
2018,07,19,02,21,12.40
2018,07,19,02,22,12.40
2018,07,19,02,23,12.40
2018,07,19,02,24,12.40
2018,07,19,02,25,12.30
2018,07,19,02,26,12.30
2018,07,19,02,27,12.30
2018,07,19,02,28,12.30
2018,07,19,02,29,12.30
2018,07,19,02,30,12.30
2018,07,19,02,31,12.30
2018,07,19,02,32,12.30
2018,07,19,02,33,12.30
2018,07,19,02,34,12.30
2018,07,19,02,35,12.30
2018,07,19,02,36,12.30
2018,07,19,02,37,12.30
2018,07,19,02,38,12.20
2018,07,19,02,39,12.20
2018,07,19,02,40,12.20
2018,07,19,02,41,12.20
2018,07,19,02,42,12.20
2018,07,19,02,43,12.20
2018,07,19,02,44,12.20
2018,07,19,02,45,12.20
2018,07,19,02,46,12.20
2018,07,19,02,47,12.10
2018,07,19,02,48,12.10
2018,07,19,02,49,12.10
2018,07,19,02,50,12.10
2018,07,19,02,51,12.00
2018,07,19,02,52,12.00
2018,07,19,02,53,12.00
2018,07,19,02,54,12.00
2018,07,19,02,55,11.90
2018,07,19,02,56,11.90
2018,07,19,02,57,11.90
2018,07,19,02,58,11.90
2018,07,19,02,59,11.90
2018,07,19,03,00,11.90
2018,07,19,03,01,11.90
2018,07,19,03,02,11.90
2018,07,19,03,03,11.90
2018,07,19,03,04,11.90
2018,07,19,03,05,11.90
2018,07,19,03,06,11.80
2018,07,19,03,07,11.80
2018,07,19,03,08,11.80
2018,07,19,03,09,11.90
2018,07,19,03,10,11.90
2018,07,19,03,11,11.90
2018,07,19,03,12,11.90
2018,07,19,03,13,11.90
2018,07,19,03,14,11.90
2018,07,19,03,15,11.90
2018,07,19,03,16,11.90
2018,07,19,03,17,11.90
2018,07,19,03,18,11.90
2018,07,19,03,19,11.90
2018,07,19,03,20,11.90
2018,07,19,03,21,11.90
2018,07,19,03,22,11.90
2018,07,19,03,23,11.90
2018,07,19,03,24,11.90
2018,07,19,03,25,11.90
2018,07,19,03,26,11.90
2018,07,19,03,27,11.90
2018,07,19,03,28,11.90
2018,07,19,03,29,11.90
2018,07,19,03,30,11.90
2018,07,19,03,31,11.90
2018,07,19,03,32,11.90
2018,07,19,03,33,11.90
2018,07,19,03,34,11.90
2018,07,19,03,35,11.90
2018,07,19,03,36,11.90
2018,07,19,03,37,11.90
2018,07,19,03,38,11.90
2018,07,19,03,39,11.90
2018,07,19,03,40,11.90
2018,07,19,03,41,11.90
2018,07,19,03,42,11.80
2018,07,19,03,43,11.90
2018,07,19,03,44,11.90
2018,07,19,03,45,11.90
2018,07,19,03,46,11.90
2018,07,19,03,47,11.90
2018,07,19,03,48,11.90
2018,07,19,03,49,11.90
2018,07,19,03,50,11.90
2018,07,19,03,51,12.00
2018,07,19,03,52,12.00
2018,07,19,03,53,12.00
2018,07,19,03,54,12.00
2018,07,19,03,55,12.00
2018,07,19,03,56,12.00
2018,07,19,03,57,12.00
2018,07,19,03,58,12.00
2018,07,19,03,59,12.00
2018,07,19,04,00,12.00
2018,07,19,04,01,12.00
2018,07,19,04,02,12.00
2018,07,19,04,03,12.00
2018,07,19,04,04,12.00
2018,07,19,04,08,12.00
2018,07,19,04,09,12.00
2018,07,19,04,10,11.90
2018,07,19,04,11,11.90
2018,07,19,04,12,11.90
2018,07,19,04,13,11.90
2018,07,19,04,14,11.90
2018,07,19,04,15,11.90
2018,07,19,04,16,11.90
2018,07,19,04,17,11.90
2018,07,19,04,18,11.90
2018,07,19,04,19,12.00
2018,07,19,04,20,12.00
2018,07,19,04,21,12.00
2018,07,19,04,22,12.10
2018,07,19,04,23,12.10
2018,07,19,04,24,12.10
2018,07,19,04,25,12.10
2018,07,19,04,26,12.10
2018,07,19,04,27,12.20
2018,07,19,04,28,12.20
2018,07,19,04,29,12.20
2018,07,19,04,30,12.20
2018,07,19,04,31,12.20
2018,07,19,04,32,12.30
2018,07,19,04,33,12.30
2018,07,19,04,34,12.30
2018,07,19,04,35,12.30
2018,07,19,04,36,12.40
2018,07,19,04,37,12.40
2018,07,19,04,38,12.40
2018,07,19,04,39,12.40
2018,07,19,04,40,12.40
2018,07,19,04,41,12.40
2018,07,19,04,42,12.50
2018,07,19,04,43,12.50
2018,07,19,04,44,12.50
2018,07,19,04,45,12.50
2018,07,19,04,46,12.60
2018,07,19,04,47,12.50
2018,07,19,04,48,12.60
2018,07,19,04,49,12.50
2018,07,19,04,50,12.60
2018,07,19,04,51,12.60
2018,07,19,04,52,12.50
2018,07,19,04,53,12.60
2018,07,19,04,54,12.50
2018,07,19,04,55,12.50
2018,07,19,04,56,12.50
2018,07,19,04,57,12.50
2018,07,19,04,58,12.50
2018,07,19,04,59,12.50
2018,07,19,05,00,12.50
2018,07,19,05,01,12.50
2018,07,19,05,02,12.50
2018,07,19,05,03,12.50
2018,07,19,05,04,12.50
2018,07,19,05,05,12.40
2018,07,19,05,06,12.40
2018,07,19,05,07,12.40
2018,07,19,05,08,12.40
2018,07,19,05,09,12.40
2018,07,19,05,10,12.40
2018,07,19,05,11,12.40
2018,07,19,05,12,12.40
2018,07,19,05,13,12.40
2018,07,19,05,14,12.40
2018,07,19,05,15,12.40
2018,07,19,05,16,12.40
2018,07,19,05,17,12.40
2018,07,19,05,18,12.40
2018,07,19,05,19,12.40
2018,07,19,05,20,12.40
2018,07,19,05,21,12.40
2018,07,19,05,22,12.40
2018,07,19,05,23,12.40
2018,07,19,05,24,12.40
2018,07,19,05,25,12.40
2018,07,19,05,26,12.30
2018,07,19,05,27,12.40
2018,07,19,05,28,12.40
2018,07,19,05,29,12.40
2018,07,19,05,30,12.40
2018,07,19,05,31,12.40
2018,07,19,05,32,12.40
2018,07,19,05,33,12.40
2018,07,19,05,34,12.50
2018,07,19,05,35,12.50
2018,07,19,05,36,12.50
2018,07,19,05,37,12.60
2018,07,19,05,38,12.60
2018,07,19,05,39,12.60
2018,07,19,05,40,12.70
2018,07,19,05,41,12.70
2018,07,19,05,42,12.70
2018,07,19,05,43,12.80
2018,07,19,05,44,12.80
2018,07,19,05,45,12.80
2018,07,19,05,46,12.90
2018,07,19,05,47,12.90
2018,07,19,05,48,12.90
2018,07,19,05,49,13.00
2018,07,19,05,50,13.00
2018,07,19,05,51,13.00
2018,07,19,05,52,13.10
2018,07,19,05,53,13.10
2018,07,19,05,54,13.10
2018,07,19,05,55,13.20
2018,07,19,05,56,13.20
2018,07,19,05,57,13.20
2018,07,19,05,58,13.20
2018,07,19,05,59,13.30
2018,07,19,06,00,13.30
2018,07,19,06,01,13.30
2018,07,19,06,02,13.30
2018,07,19,06,03,13.30
2018,07,19,06,04,13.30
2018,07,19,06,05,13.40
2018,07,19,06,06,13.40
2018,07,19,06,07,13.40
2018,07,19,06,08,13.40
2018,07,19,06,09,13.40
2018,07,19,06,10,13.40
2018,07,19,06,11,13.40
2018,07,19,06,12,13.50
2018,07,19,06,13,13.50
2018,07,19,06,14,13.50
2018,07,19,06,15,13.50
2018,07,19,06,16,13.60
2018,07,19,06,17,13.60
2018,07,19,06,18,13.60
2018,07,19,06,19,13.60
2018,07,19,06,20,13.70
2018,07,19,06,21,13.70
2018,07,19,06,22,13.70
2018,07,19,06,23,13.70
2018,07,19,06,24,13.70
2018,07,19,06,25,13.80
2018,07,19,06,26,13.80
2018,07,19,06,27,13.80
2018,07,19,06,28,13.80
2018,07,19,06,29,13.80
2018,07,19,06,30,13.90
2018,07,19,06,31,13.90
2018,07,19,06,32,13.90
2018,07,19,06,33,13.90
2018,07,19,06,34,14.00
2018,07,19,06,35,14.00
2018,07,19,06,36,14.10
2018,07,19,06,37,14.10
2018,07,19,06,38,14.10
2018,07,19,06,39,14.10
2018,07,19,06,40,14.20
2018,07,19,06,41,14.20
2018,07,19,06,42,14.20
2018,07,19,06,43,14.20
2018,07,19,06,44,14.20
2018,07,19,06,45,14.20
2018,07,19,06,46,14.30
2018,07,19,06,47,14.30
2018,07,19,06,48,14.30
2018,07,19,06,49,14.30
2018,07,19,06,50,14.30
2018,07,19,06,51,14.30
2018,07,19,06,52,14.30
2018,07,19,06,53,14.40
2018,07,19,06,54,14.40
2018,07,19,06,55,14.40
2018,07,19,06,56,14.40
2018,07,19,06,57,14.40
2018,07,19,06,58,14.40
2018,07,19,06,59,14.40
2018,07,19,07,00,14.40
2018,07,19,07,01,14.40
2018,07,19,07,02,14.40
2018,07,19,07,03,14.40
2018,07,19,07,04,14.50
2018,07,19,07,05,14.50
2018,07,19,07,06,14.50
2018,07,19,07,07,14.50
2018,07,19,07,08,14.50
2018,07,19,07,09,14.60
2018,07,19,07,10,14.60
2018,07,19,07,11,14.60
2018,07,19,07,12,14.60
2018,07,19,07,13,14.60
2018,07,19,07,14,14.70
2018,07,19,07,15,14.70
2018,07,19,07,16,14.70
2018,07,19,07,17,14.70
2018,07,19,07,18,14.70
2018,07,19,07,19,14.80
2018,07,19,07,20,14.80
2018,07,19,07,21,14.80
2018,07,19,07,22,14.90
2018,07,19,07,23,14.90
2018,07,19,07,24,14.90
2018,07,19,07,25,14.90
2018,07,19,07,26,15.00
2018,07,19,07,27,15.00
2018,07,19,07,28,15.00
2018,07,19,07,29,15.00
2018,07,19,07,30,15.10
2018,07,19,07,31,15.10
2018,07,19,07,32,15.10
2018,07,19,07,33,15.10
2018,07,19,07,34,15.20
2018,07,19,07,35,15.20
2018,07,19,07,36,15.20
2018,07,19,07,37,15.20
2018,07,19,07,38,15.20
2018,07,19,07,39,15.20
2018,07,19,07,40,15.20
2018,07,19,07,41,15.30
2018,07,19,07,42,15.30
2018,07,19,07,43,15.30
2018,07,19,07,44,15.30
2018,07,19,07,45,15.30
2018,07,19,07,46,15.30
2018,07,19,07,47,15.30
2018,07,19,07,48,15.30
2018,07,19,07,49,15.40
2018,07,19,07,50,15.40
2018,07,19,07,51,15.40
2018,07,19,07,52,15.40
2018,07,19,07,53,15.40
2018,07,19,07,54,15.40
2018,07,19,07,55,15.40
2018,07,19,07,56,15.50
2018,07,19,07,57,15.50
2018,07,19,07,58,15.50
2018,07,19,07,59,15.50
2018,07,19,08,00,15.50
2018,07,19,08,01,15.60
2018,07,19,08,02,15.60
2018,07,19,08,03,15.60
2018,07,19,08,04,15.60
2018,07,19,08,05,15.60
2018,07,19,08,06,15.60
2018,07,19,08,07,15.70
2018,07,19,08,08,15.70
2018,07,19,08,09,15.70
2018,07,19,08,10,15.70
2018,07,19,08,11,15.70
2018,07,19,08,12,15.80
2018,07,19,08,13,15.80
2018,07,19,08,14,15.80
2018,07,19,08,15,15.80
2018,07,19,08,16,15.80
2018,07,19,08,17,15.80
2018,07,19,08,18,15.90
2018,07,19,08,19,15.90
2018,07,19,08,20,15.90
2018,07,19,08,21,15.90
2018,07,19,08,22,15.90
2018,07,19,08,23,15.90
2018,07,19,08,24,15.90
2018,07,19,08,25,15.90
2018,07,19,08,26,16.00
2018,07,19,08,27,16.00
2018,07,19,08,28,16.00
2018,07,19,08,29,16.10
2018,07,19,08,30,16.10
2018,07,19,08,31,16.10
2018,07,19,08,32,16.20
2018,07,19,08,33,16.20
2018,07,19,08,34,16.20
2018,07,19,08,35,16.20
2018,07,19,08,36,16.30
2018,07,19,08,37,16.30
2018,07,19,08,38,16.30
2018,07,19,08,39,16.30
2018,07,19,08,40,16.30
2018,07,19,08,41,16.30
2018,07,19,08,42,16.30
2018,07,19,08,43,16.40
2018,07,19,08,44,16.40
2018,07,19,08,45,16.40
2018,07,19,08,46,16.40
2018,07,19,08,47,16.50
2018,07,19,08,48,16.50
2018,07,19,08,49,16.50
2018,07,19,08,50,16.50
2018,07,19,08,51,16.60
2018,07,19,08,52,16.60
2018,07,19,08,53,16.60
2018,07,19,08,54,16.60
2018,07,19,08,55,16.60
2018,07,19,08,56,16.70
2018,07,19,08,57,16.70
2018,07,19,08,58,16.70
2018,07,19,08,59,16.70
2018,07,19,09,00,16.70
2018,07,19,09,01,16.70
2018,07,19,09,02,16.80
2018,07,19,09,03,16.80
2018,07,19,09,04,16.80
2018,07,19,09,05,16.90
2018,07,19,09,06,16.90
2018,07,19,09,07,17.00
2018,07,19,09,08,17.00
2018,07,19,09,09,17.00
2018,07,19,09,10,17.10
2018,07,19,09,11,17.10
2018,07,19,09,12,17.10
2018,07,19,09,13,17.10
2018,07,19,09,14,17.10
2018,07,19,09,15,17.10
2018,07,19,09,16,17.20
2018,07,19,09,17,17.20
2018,07,19,09,18,17.20
2018,07,19,09,19,17.20
2018,07,19,09,20,17.20
2018,07,19,09,21,17.20
2018,07,19,09,22,17.20
2018,07,19,09,23,17.20
2018,07,19,09,24,17.20
2018,07,19,09,25,17.20
2018,07,19,09,26,17.20
2018,07,19,09,27,17.20
2018,07,19,09,28,17.20
2018,07,19,09,29,17.20
2018,07,19,09,30,17.20
2018,07,19,09,31,17.30
2018,07,19,09,32,17.30
2018,07,19,09,33,17.30
2018,07,19,09,34,17.30
2018,07,19,09,35,17.30
2018,07,19,09,36,17.30
2018,07,19,09,37,17.30
2018,07,19,09,38,17.40
2018,07,19,09,39,17.40
2018,07,19,09,40,17.40
2018,07,19,09,41,17.40
2018,07,19,09,42,17.40
2018,07,19,09,43,17.40
2018,07,19,09,44,17.40
2018,07,19,09,45,17.40
2018,07,19,09,46,17.40
2018,07,19,09,47,17.40
2018,07,19,09,48,17.40
2018,07,19,09,49,17.50
2018,07,19,09,50,17.50
2018,07,19,09,51,17.50
2018,07,19,09,52,17.50
2018,07,19,09,53,17.50
2018,07,19,09,54,17.60
2018,07,19,09,55,17.60
2018,07,19,09,56,17.70
2018,07,19,09,57,17.70
2018,07,19,09,58,17.70
2018,07,19,09,59,17.70
2018,07,19,10,00,17.70
2018,07,19,10,01,17.70
2018,07,19,10,02,17.70
2018,07,19,10,03,17.70
2018,07,19,10,04,17.70
2018,07,19,10,05,17.70
2018,07,19,10,06,17.70
2018,07,19,10,07,17.70
2018,07,19,10,08,17.80
2018,07,19,10,09,17.80
2018,07,19,10,10,17.80
2018,07,19,10,11,17.80
2018,07,19,10,12,17.90
2018,07,19,10,13,17.90
2018,07,19,10,14,18.00
2018,07,19,10,15,18.00
2018,07,19,10,16,18.00
2018,07,19,10,17,18.00
2018,07,19,10,18,18.00
2018,07,19,10,19,18.00
2018,07,19,10,20,18.00
2018,07,19,10,21,18.00
2018,07,19,10,22,18.00
2018,07,19,10,23,18.10
2018,07,19,10,24,18.10
2018,07,19,10,25,18.10
2018,07,19,10,26,18.20
2018,07,19,10,27,18.20
2018,07,19,10,28,18.30
2018,07,19,10,29,18.30
2018,07,19,10,30,18.30
2018,07,19,10,31,18.40
2018,07,19,10,32,18.40
2018,07,19,10,33,18.40
2018,07,19,10,34,18.40
2018,07,19,10,35,18.40
2018,07,19,10,36,18.50
2018,07,19,10,37,18.50
2018,07,19,10,38,18.60
2018,07,19,10,39,18.60
2018,07,19,10,40,18.60
2018,07,19,10,41,18.70
2018,07,19,10,42,18.70
2018,07,19,10,43,18.70
2018,07,19,10,44,18.70
2018,07,19,10,45,18.70
2018,07,19,10,46,18.70
2018,07,19,10,47,18.70
2018,07,19,10,48,18.70
2018,07,19,10,49,18.70
2018,07,19,10,50,18.70
2018,07,19,10,51,18.70
2018,07,19,10,52,18.60
2018,07,19,10,53,18.60
2018,07,19,10,54,18.60
2018,07,19,10,55,18.50
2018,07,19,10,56,18.40
2018,07,19,10,57,18.30
2018,07,19,10,58,18.30
2018,07,19,10,59,18.30
2018,07,19,11,00,18.20
2018,07,19,11,01,18.20
2018,07,19,11,02,18.30
2018,07,19,11,03,18.30
2018,07,19,11,04,18.30
2018,07,19,11,05,18.30
2018,07,19,11,06,18.30
2018,07,19,11,07,18.30
2018,07,19,11,08,18.20
2018,07,19,11,09,18.20
2018,07,19,11,10,18.20
2018,07,19,11,11,18.10
2018,07,19,11,12,18.10
2018,07,19,11,13,18.00
2018,07,19,11,14,18.00
2018,07,19,11,15,17.90
2018,07,19,11,16,17.90
2018,07,19,11,17,17.80
2018,07,19,11,18,17.80
2018,07,19,11,19,17.80
2018,07,19,11,20,17.80
2018,07,19,11,21,17.80
2018,07,19,11,22,17.80
2018,07,19,11,23,17.80
2018,07,19,11,24,17.80
2018,07,19,11,25,17.80
2018,07,19,11,26,17.80
2018,07,19,11,27,17.70
2018,07,19,11,28,17.70
2018,07,19,11,29,17.70
2018,07,19,11,30,17.70
2018,07,19,11,31,17.60
2018,07,19,11,32,17.60
2018,07,19,11,33,17.60
2018,07,19,11,34,17.60
2018,07,19,11,35,17.60
2018,07,19,11,36,17.60
2018,07,19,11,37,17.60
2018,07,19,11,38,17.60
2018,07,19,11,39,17.60
2018,07,19,11,40,17.60
2018,07,19,11,41,17.70
2018,07,19,11,42,17.70
2018,07,19,11,43,17.70
2018,07,19,11,44,17.70
2018,07,19,11,45,17.70
2018,07,19,11,46,17.70
2018,07,19,11,47,17.70
2018,07,19,11,48,17.70
2018,07,19,11,49,17.70
2018,07,19,11,50,17.70
2018,07,19,11,51,17.70
2018,07,19,11,52,17.70
2018,07,19,11,53,17.70
2018,07,19,11,54,17.80
2018,07,19,11,55,17.80
2018,07,19,11,56,17.80
2018,07,19,11,57,17.80
2018,07,19,11,58,17.80
2018,07,19,11,59,17.80
2018,07,19,12,00,17.80
2018,07,19,12,01,17.80
2018,07,19,12,02,17.90
2018,07,19,12,03,17.90
2018,07,19,12,04,18.00
2018,07,19,12,05,18.00
2018,07,19,12,06,18.10
2018,07,19,12,07,18.10
2018,07,19,12,08,18.20
2018,07,19,12,09,18.30
2018,07,19,12,10,18.40
2018,07,19,12,11,18.40
2018,07,19,12,12,18.40
2018,07,19,12,13,18.40
2018,07,19,12,14,18.40
2018,07,19,12,15,18.30
2018,07,19,12,16,18.30
2018,07,19,12,17,18.20
2018,07,19,12,18,18.20
2018,07,19,12,19,18.20
2018,07,19,12,20,18.20
2018,07,19,12,21,18.10
2018,07,19,12,22,18.10
2018,07,19,12,23,18.10
2018,07,19,12,24,18.10
2018,07,19,12,25,18.10
2018,07,19,12,26,18.10
2018,07,19,12,27,18.10
2018,07,19,12,28,18.10
2018,07,19,12,29,18.10
2018,07,19,12,30,18.10
2018,07,19,12,31,18.10
2018,07,19,12,32,18.00
2018,07,19,12,33,18.00
2018,07,19,12,34,18.00
2018,07,19,12,35,18.00
2018,07,19,12,36,18.00
2018,07,19,12,37,18.00
2018,07,19,12,38,18.00
2018,07,19,12,39,18.10
2018,07,19,12,40,18.10
2018,07,19,12,41,18.20
2018,07,19,12,42,18.20
2018,07,19,12,43,18.30
2018,07,19,12,44,18.30
2018,07,19,12,45,18.30
2018,07,19,12,46,18.40
2018,07,19,12,47,18.40
2018,07,19,12,48,18.40
2018,07,19,12,49,18.40
2018,07,19,12,50,18.40
2018,07,19,12,51,18.40
2018,07,19,12,52,18.40
2018,07,19,12,53,18.50
2018,07,19,12,54,18.50
2018,07,19,12,55,18.60
2018,07,19,12,56,18.60
2018,07,19,12,57,18.70
2018,07,19,12,58,18.70
2018,07,19,12,59,18.80
2018,07,19,13,00,18.80
2018,07,19,13,01,18.80
2018,07,19,13,02,18.80
2018,07,19,13,03,18.80
2018,07,19,13,04,18.80
2018,07,19,13,05,18.80
2018,07,19,13,06,18.80
2018,07,19,13,07,18.80
2018,07,19,13,08,18.90
2018,07,19,13,09,18.80
2018,07,19,13,10,18.80
2018,07,19,13,11,18.80
2018,07,19,13,12,18.80
2018,07,19,13,13,18.70
2018,07,19,13,14,18.70
2018,07,19,13,15,18.70
2018,07,19,13,16,18.70
2018,07,19,13,17,18.80
2018,07,19,13,18,18.90
2018,07,19,13,19,19.10
2018,07,19,13,20,19.30
2018,07,19,13,21,19.30
2018,07,19,13,22,19.40
2018,07,19,13,23,19.40
2018,07,19,13,24,19.40
2018,07,19,13,25,19.50
2018,07,19,13,26,19.50
2018,07,19,13,27,19.50
2018,07,19,13,28,19.50
2018,07,19,13,29,19.50
2018,07,19,13,30,19.50
2018,07,19,13,31,19.50
2018,07,19,13,32,19.50
2018,07,19,13,33,19.60
2018,07,19,13,34,19.60
2018,07,19,13,35,19.60
2018,07,19,13,36,19.70
2018,07,19,13,37,19.70
2018,07,19,13,38,19.80
2018,07,19,13,39,19.80
2018,07,19,13,40,19.80
2018,07,19,13,41,19.80
2018,07,19,13,42,19.90
2018,07,19,13,43,20.00
2018,07,19,13,44,20.10
2018,07,19,13,45,20.20
2018,07,19,13,46,20.20
2018,07,19,13,47,20.30
2018,07,19,13,48,20.40
2018,07,19,13,49,20.50
2018,07,19,13,50,20.70
2018,07,19,13,51,20.80
2018,07,19,13,52,21.00
2018,07,19,13,53,21.10
2018,07,19,13,54,21.10
2018,07,19,13,55,21.10
2018,07,19,13,56,21.00
2018,07,19,13,57,21.00
2018,07,19,13,58,20.90
2018,07,19,13,59,20.90
2018,07,19,14,00,20.80
2018,07,19,14,01,20.70
2018,07,19,14,02,20.70
2018,07,19,14,03,20.60
2018,07,19,14,04,20.60
2018,07,19,14,05,20.70
2018,07,19,14,06,20.70
2018,07,19,14,07,20.70
2018,07,19,14,08,20.70
2018,07,19,14,09,20.60
2018,07,19,14,10,20.60
2018,07,19,14,11,20.60
2018,07,19,14,12,20.60
2018,07,19,14,13,20.60
2018,07,19,14,14,20.70
2018,07,19,14,15,20.70
2018,07,19,14,16,20.70
2018,07,19,14,17,20.70
2018,07,19,14,18,20.70
2018,07,19,14,19,20.70
2018,07,19,14,20,20.80
2018,07,19,14,21,20.80
2018,07,19,14,22,20.80
2018,07,19,14,23,20.80
2018,07,19,14,24,20.80
2018,07,19,14,25,20.80
2018,07,19,14,26,20.80
2018,07,19,14,27,20.90
2018,07,19,14,28,20.90
2018,07,19,14,29,20.90
2018,07,19,14,30,20.90
2018,07,19,14,31,21.00
2018,07,19,14,32,21.00
2018,07,19,14,33,21.00
2018,07,19,14,34,21.10
2018,07,19,14,35,21.10
2018,07,19,14,36,21.20
2018,07,19,14,37,21.20
2018,07,19,14,38,21.20
2018,07,19,14,39,21.20
2018,07,19,14,40,21.20
2018,07,19,14,41,21.20
2018,07,19,14,42,21.20
2018,07,19,14,43,21.20
2018,07,19,14,44,21.10
2018,07,19,14,45,21.10
2018,07,19,14,46,21.00
2018,07,19,14,47,20.90
2018,07,19,14,48,20.90
2018,07,19,14,49,20.80
2018,07,19,14,50,20.80
2018,07,19,14,51,20.80
2018,07,19,14,52,20.80
2018,07,19,14,53,20.70
2018,07,19,14,54,20.70
2018,07,19,14,55,20.70
2018,07,19,14,56,20.60
2018,07,19,14,57,20.50
2018,07,19,14,58,20.40
2018,07,19,14,59,20.40
2018,07,19,15,00,20.30
2018,07,19,15,01,20.30
2018,07,19,15,02,20.30
2018,07,19,15,03,20.20
2018,07,19,15,04,20.10
2018,07,19,15,05,20.10
2018,07,19,15,06,20.00
2018,07,19,15,07,20.00
2018,07,19,15,08,20.00
2018,07,19,15,09,19.90
2018,07,19,15,10,19.90
2018,07,19,15,11,19.80
2018,07,19,15,12,19.80
2018,07,19,15,13,19.70
2018,07,19,15,14,19.70
2018,07,19,15,15,19.70
2018,07,19,15,16,19.70
2018,07,19,15,17,19.60
2018,07,19,15,18,19.60
2018,07,19,15,19,19.70
2018,07,19,15,20,19.60
2018,07,19,15,21,19.60
2018,07,19,15,22,19.50
2018,07,19,15,23,19.50
2018,07,19,15,24,19.50
2018,07,19,15,25,19.50
2018,07,19,15,26,19.50
2018,07,19,15,27,19.60
2018,07,19,15,28,19.60
2018,07,19,15,29,19.60
2018,07,19,15,30,19.50
2018,07,19,15,31,19.50
2018,07,19,15,32,19.40
2018,07,19,15,33,19.40
2018,07,19,15,34,19.40
2018,07,19,15,35,19.30
2018,07,19,15,36,19.30
2018,07,19,15,37,19.30
2018,07,19,15,38,19.40
2018,07,19,15,39,19.40
2018,07,19,15,40,19.40
2018,07,19,15,41,19.40
2018,07,19,15,42,19.40
2018,07,19,15,43,19.40
2018,07,19,15,44,19.30
2018,07,19,15,45,19.30
2018,07,19,15,46,19.30
2018,07,19,15,47,19.30
2018,07,19,15,48,19.30
2018,07,19,15,49,19.30
2018,07,19,15,50,19.40
2018,07,19,15,51,19.40
2018,07,19,15,52,19.40
2018,07,19,15,53,19.50
2018,07,19,15,54,19.50
2018,07,19,15,55,19.60
2018,07,19,15,56,19.70
2018,07,19,15,57,19.70
2018,07,19,15,58,19.70
2018,07,19,15,59,19.70
2018,07,19,16,00,19.60
2018,07,19,16,01,19.60
2018,07,19,16,02,19.60
2018,07,19,16,03,19.60
2018,07,19,16,04,19.50
2018,07,19,16,05,19.50
2018,07,19,16,06,19.50
2018,07,19,16,07,19.50
2018,07,19,16,08,19.50
2018,07,19,16,09,19.60
2018,07,19,16,10,19.60
2018,07,19,16,11,19.50
2018,07,19,16,12,19.50
2018,07,19,16,13,19.50
2018,07,19,16,14,19.40
2018,07,19,16,15,19.40
2018,07,19,16,16,19.40
2018,07,19,16,17,19.40
2018,07,19,16,18,19.40
2018,07,19,16,19,19.50
2018,07,19,16,20,19.40
2018,07,19,16,21,19.40
2018,07,19,16,22,19.50
2018,07,19,16,23,19.60
2018,07,19,16,24,19.60
2018,07,19,16,25,19.70
2018,07,19,16,26,19.70
2018,07,19,16,27,19.70
2018,07,19,16,28,19.80
2018,07,19,16,29,19.80
2018,07,19,16,30,19.80
2018,07,19,16,31,19.80
2018,07,19,16,32,19.80
2018,07,19,16,33,19.80
2018,07,19,16,34,19.80
2018,07,19,16,35,19.90
2018,07,19,16,36,19.90
2018,07,19,16,37,19.90
2018,07,19,16,38,19.90
2018,07,19,16,39,20.00
2018,07,19,16,40,20.00
2018,07,19,16,41,20.00
2018,07,19,16,42,19.90
2018,07,19,16,43,19.90
2018,07,19,16,44,19.90
2018,07,19,16,45,19.90
2018,07,19,16,46,19.80
2018,07,19,16,47,19.90
2018,07,19,16,48,19.90
2018,07,19,16,49,19.90
2018,07,19,16,50,19.80
2018,07,19,16,51,19.90
2018,07,19,16,52,19.90
2018,07,19,16,53,19.90
2018,07,19,16,54,19.90
2018,07,19,16,55,20.00
2018,07,19,16,56,20.00
2018,07,19,16,57,20.10
2018,07,19,16,58,20.10
2018,07,19,16,59,20.10
2018,07,19,17,00,20.10
2018,07,19,17,01,20.10
2018,07,19,17,02,20.20
2018,07,19,17,03,20.20
2018,07,19,17,04,20.30
2018,07,19,17,05,20.30
2018,07,19,17,06,20.40
2018,07,19,17,07,20.40
2018,07,19,17,08,20.50
2018,07,19,17,09,20.60
2018,07,19,17,10,20.60
2018,07,19,17,11,20.60
2018,07,19,17,12,20.60
2018,07,19,17,13,20.60
2018,07,19,17,14,20.70
2018,07,19,17,15,20.70
2018,07,19,17,16,20.70
2018,07,19,17,17,20.70
2018,07,19,17,18,20.80
2018,07,19,17,19,20.80
2018,07,19,17,20,20.80
2018,07,19,17,21,20.80
2018,07,19,17,22,20.80